Abilene, TX

1:49 PM CDT on October 21, 2017 (GMT -0500)
Abilene Regional

Weather History for KABI - January, 2013

Change the Weather History Date:

Tuesday, January 22, 2013

  Actual Average Record
Temperature  
Mean Temperature 48 °F 45 °F  
Max Temperature 66 °F 57 °F 85 °F (2010)
Min Temperature 30 °F 33 °F 6 °F (1930)
Degree Days  
Heating Degree Days 17 20  
Month to date heating degree days 504 450  
Since 1 July heating degree days 1339 1495  
Cooling Degree Days 0 0  
Month to date cooling degree days 0 0  
Year to date cooling degree days 0 0  
Moisture  
Dew Point 36 °F    
Average Humidity 59    
Maximum Humidity 83    
Minimum Humidity 34    
Precipitation  
Precipitation 0.00 in 0.04 in 0.83 in (1919)
Month to date precipitation 1.31 0.68  
Year to date precipitation 1.31 0.68  
Sea Level Pressure  
Sea Level Pressure 30.21 in    
Wind  
Wind Speed 9 mph (South)    
Max Wind Speed 24 mph    
Max Gust Speed 29 mph    
Visibility 10 miles    
Events      
T = Trace of Precipitation, MM = Missing Value Source: NWS Daily Summary

Daily Weather History Graph

Daily Weather History Graph

Search for Another Location

Airport or City:

Trip Planner

Search our weather history database for the weather conditions in past years. The results will help you decide how hot, cold, wet, or windy it might be!

Date:

Astronomy

Jan. 22, 2013 Rise Set
Actual Time 7:38 AM CST 6:02 PM CST
Civil Twilight 7:11 AM CST 6:29 PM CST
Nautical Twilight 6:42 AM CST 6:59 PM CST
Astronomical Twilight 6:12 AM CST 7:28 PM CST
Moon 2:29 PM CST (1/22) 3:59 AM CST (1/22)
Length of Visible Light 11h 17m
Length of Day
10h 24m
Waxing Gibbous, 83% of the Moon is Illuminated
Jan 22
Waxing Gibbous
Jan 26
Full
Feb 3
Last Quarter
Feb 10
New
Feb 17
First Quarter

Hourly Weather History & Observations

Time (CST) Temp. Windchill Dew Point Humidity Pressure Visibility Wind Dir Wind Speed Gust Speed Precip Events Conditions
12:52 AM 34.0 °F - 27.0 °F 75% 30.27 in 10.0 mi Calm Calm - N/A   Partly Cloudy
1:52 AM 32.0 °F 27.5 °F 26.1 °F 79% 30.26 in 10.0 mi South 4.6 mph - N/A   Partly Cloudy
2:52 AM 32.0 °F - 25.0 °F 75% 30.25 in 10.0 mi Calm Calm - N/A   Clear
3:22 AM 32.0 °F - 24.8 °F 75% 30.24 in 10.0 mi North - - N/A   Clear
3:52 AM 30.9 °F 27.5 °F 25.0 °F 79% 30.25 in 10.0 mi SSE 3.5 mph - N/A   Clear
4:52 AM 33.1 °F - 25.0 °F 72% 30.26 in 10.0 mi Calm Calm - N/A   Scattered Clouds
5:52 AM 30.0 °F 25.2 °F 25.0 °F 82% 30.26 in 10.0 mi SSE 4.6 mph - N/A   Partly Cloudy
6:52 AM 32.0 °F 28.7 °F 26.1 °F 79% 30.27 in 10.0 mi SSE 3.5 mph - N/A   Mostly Cloudy
7:52 AM 33.1 °F 28.7 °F 27.0 °F 78% 30.28 in 10.0 mi South 4.6 mph - N/A   Mostly Cloudy
8:52 AM 37.9 °F 34.4 °F 27.0 °F 65% 30.27 in 10.0 mi SSE 4.6 mph - N/A   Scattered Clouds
9:52 AM 48.9 °F - 30.9 °F 50% 30.26 in 10.0 mi SSE 11.5 mph - N/A   Partly Cloudy
10:52 AM 55.0 °F - 39.0 °F 55% 30.25 in 10.0 mi South 12.7 mph - N/A   Clear
11:52 AM 57.0 °F - 36.0 °F 45% 30.23 in 10.0 mi SSW 16.1 mph - N/A   Clear
12:52 PM 64.0 °F - 39.9 °F 41% 30.19 in 10.0 mi SW 16.1 mph 23.0 mph N/A   Clear
1:52 PM 64.9 °F - 36.0 °F 34% 30.15 in 10.0 mi SSW 21.9 mph 25.3 mph N/A   Clear
2:52 PM 66.0 °F - 39.9 °F 38% 30.14 in 10.0 mi SSW 17.3 mph - N/A   Clear
3:52 PM 66.0 °F - 42.1 °F 42% 30.13 in 10.0 mi SW 18.4 mph 24.2 mph N/A   Clear
4:52 PM 66.0 °F - 42.1 °F 42% 30.13 in 10.0 mi SSW 12.7 mph - N/A   Clear
5:52 PM 62.1 °F - 42.1 °F 48% 30.13 in 10.0 mi South 5.8 mph - N/A   Clear
6:52 PM 55.0 °F - 43.0 °F 64% 30.14 in 10.0 mi SSE 8.1 mph - N/A   Clear
7:52 PM 54.0 °F - 44.1 °F 69% 30.16 in 10.0 mi South 8.1 mph - N/A   Clear
8:52 PM 55.0 °F - 48.0 °F 77% 30.17 in 10.0 mi SSW 9.2 mph - N/A   Clear
9:52 PM 55.0 °F - 48.9 °F 80% 30.17 in 10.0 mi SSW 9.2 mph - N/A   Clear
10:52 PM 55.0 °F - 50.0 °F 83% 30.16 in 10.0 mi SSW 11.5 mph - N/A   Clear
11:52 PM 54.0 °F - 50.0 °F 86% 30.17 in 10.0 mi SSW 8.1 mph - N/A   Clear